Location: Newark
(12.6500°N, 8.0000°W)
Time: 00:07:02
(UTC+00:00)

N. Korean satellite - Pass Details

Date: 30 October 2019
Orbit: 456 x 506 km, 97.2° (Epoch: 12 November)

Event Time Altitude Azimuth Distance (km) Brightness Sun altitude
Rises 05:23:30 0° 37° (NE) 2,594 10.6 -15.4°
Reaches altitude 10° 05:26:12 10° 59° (ENE) 1,713 10.0 -14.8°
Maximum altitude 05:28:33 16° 99° (E) 1,370 10.1 -14.2°
Drops below altitude 10° 05:30:54 10° 138° (SE) 1,712 10.1 -13.6°
Sets 05:33:36 0° 160° (SSE) 2,592 10.7 -13.0°
